| time (UTC) | temp C | wind direction | speed KPH | gust KPH | rain 1hr cm | rain 24hr cm | rain mn cm | humidity % | barometer mb |
| 20260831104525 | 20 | 296 | 8.0 | 19.3 | 0.00 | 0.58 | 0.03 | 73 | 1010.6 |
| 20260831104036 | 20 | 257 | 9.7 | 25.7 | 0.00 | 0.58 | 0.03 | 72 | 1010.5 |
| 20260831103521 | 19 | 290 | 8.0 | 25.7 | 0.00 | 0.58 | 0.03 | 74 | 1010.5 |
| 20260831103050 | 19 | 244 | 9.7 | 20.9 | 0.00 | 0.58 | 0.03 | 74 | 1010.4 |
| 20260831102521 | 19 | 295 | 6.4 | 22.5 | 0.00 | 0.58 | 0.03 | 75 | 1010.4 |
| 20260831102039 | 19 | 283 | 12.9 | 25.7 | 0.00 | 0.58 | 0.03 | 74 | 1010.3 |
| 20260831101524 | 18 | 250 | 9.7 | 25.7 | 0.00 | 0.58 | 0.03 | 75 | 1010.3 |
| 20260831101037 | 18 | 286 | 6.4 | 19.3 | 0.00 | 0.58 | 0.03 | 76 | 1010.1 |
| 20260831100630 | 18 | 0.0 | 0.0 | 0.00 | 0.58 | 0.03 | 79 | 1010.2 | |
| 20260831100621 | 18 | 0.0 | 0.0 | 0.00 | 0.58 | 0.03 | 76 | 1010.1 | |
| 20260831100555 | 18 | 314 | 9.7 | 19.3 | 0.00 | 0.58 | 0.03 | 75 | 1010.2 |
| 20260831095003 | 17 | 0.0 | 0.0 | 0.00 | 0.58 | 0.03 | 79 | 1010.1 | |
| 20260831094501 | 17 | 0.0 | 0.0 | 0.00 | 0.58 | 0.03 | 80 | 1010.0 | |
| 20260831093959 | 17 | 0.0 | 0.0 | 0.00 | 0.58 | 0.03 | 80 | 1009.9 | |
| 20260831093457 | 17 | 0.0 | 0.0 | 0.00 | 0.58 | 0.03 | 82 | 1009.8 | |
| 20260831093001 | 17 | 0.0 | 0.0 | 0.00 | 0.58 | 0.03 | 82 | 1009.8 | |
| 20260831092453 | 17 | 0.0 | 0.0 | 0.00 | 0.58 | 0.03 | 81 | 1009.8 | |
| 20260831092001 | 17 | 0.0 | 0.0 | 0.00 | 0.58 | 0.03 | 83 | 1009.7 | |
| 20260831091448 | 16 | 0.0 | 0.0 | 0.00 | 0.58 | 0.03 | 83 | 1009.6 | |
| 20260831090944 | 16 | 0.0 | 0.0 | 0.00 | 0.58 | 0.03 | 83 | 1009.5 | |
| 20260831090445 | 16 | 0.0 | 0.0 | 0.00 | 0.58 | 0.03 | 84 | 1009.4 | |
| 20260831085943 | 16 | 0.0 | 0.0 | 0.00 | 0.58 | 0.03 | 85 | 1009.3 | |
| 20260831085443 | 16 | 0.0 | 0.0 | 0.00 | 0.58 | 0.03 | 84 | 1009.3 | |
| 20260831084943 | 16 | 0.0 | 0.0 | 0.00 | 0.58 | 0.03 | 85 | 1009.1 | |
| 20260831084443 | 16 | 0.0 | 0.0 | 0.00 | 0.58 | 0.03 | 85 | 1009.0 | |
| 20260831083942 | 16 | 0.0 | 0.0 | 0.00 | 0.58 | 0.03 | 86 | 1008.9 | |
| 20260831083443 | 16 | 0.0 | 0.0 | 0.00 | 0.58 | 0.03 | 86 | 1008.8 | |
| 20260831082940 | 16 | 0.0 | 0.0 | 0.00 | 0.58 | 0.03 | 86 | 1008.8 | |
| 20260831082444 | 15 | 0.0 | 0.0 | 0.00 | 0.58 | 0.03 | 86 | 1008.8 | |
| 20260831082203 | 15 | 0.0 | 0.0 | 0.00 | 0.58 | 0.03 | 87 | 1008.6 | |
| 20260831081943 | 15 | 0.0 | 0.0 | 0.00 | 0.58 | 0.03 | 87 | 1008.6 | |
| 20260831081444 | 15 | 0.0 | 0.0 | 0.00 | 0.58 | 0.03 | 87 | 1008.6 | |
| 20260831080941 | 15 | 0.0 | 0.0 | 0.00 | 0.58 | 0.03 | 87 | 1008.5 | |
| 20260831080446 | 15 | 0.0 | 0.0 | 0.00 | 0.58 | 0.03 | 88 | 1008.4 | |
| 20260831075938 | 15 | 0.0 | 0.0 | 0.00 | 0.58 | 0.03 | 88 | 1008.2 | |
| 20260831075433 | 15 | 0.0 | 0.0 | 0.00 | 0.58 | 0.03 | 88 | 1008.2 | |
| 20260831074932 | 15 | 0.0 | 0.0 | 0.00 | 0.58 | 0.03 | 89 | 1008.1 | |
| 20260831074436 | 14 | 0.0 | 0.0 | 0.00 | 0.58 | 0.03 | 89 | 1008.0 | |
| 20260831074157 | 14 | 0.0 | 0.0 | 0.00 | 0.58 | 0.03 | 89 | 1007.9 | |
| 20260831073941 | 14 | 0.0 | 0.0 | 0.00 | 0.58 | 0.03 | 89 | 1007.9 | |
| 20260831073646 | 14 | 0.0 | 0.0 | 0.00 | 0.58 | 0.03 | 89 | 1007.8 | |
| 20260831073547 | 14 | 0.0 | 0.0 | 0.00 | 0.58 | 0.03 | 89 | 1007.9 | |
| 20260831072433 | 14 | 0.0 | 0.0 | 0.00 | 0.58 | 0.03 | 90 | 1007.8 | |
| 20260831071935 | 14 | 0.0 | 0.0 | 0.00 | 0.58 | 0.03 | 90 | 1007.8 | |
| 20260831071436 | 14 | 0.0 | 0.0 | 0.00 | 0.58 | 0.03 | 90 | 1007.7 | |
| 20260831070934 | 14 | 0.0 | 0.0 | 0.00 | 0.58 | 0.03 | 90 | 1007.5 | |
| 20260831070430 | 14 | 0.0 | 0.0 | 0.00 | 0.58 | 0.03 | 90 | 1007.4 | |
| 20260831070338 | 14 | 0.0 | 0.0 | 0.00 | 0.58 | 0.03 | 90 | 1007.4 | |
| 20260831065427 | 14 | 0.0 | 0.0 | 0.00 | 0.58 | 0.03 | 91 | 1007.3 | |
| 20260831064921 | 13 | 0.0 | 0.0 | 0.00 | 0.58 | 0.03 | 92 | 1007.2 | |
| 20260831064421 | 13 | 0.0 | 0.0 | 0.00 | 0.58 | 0.03 | 92 | 1007.1 | |
| 20260831063921 | 13 | 0.0 | 0.0 | 0.00 | 0.58 | 0.03 | 92 | 1007.1 | |
| 20260831063422 | 13 | 0.0 | 0.0 | 0.00 | 0.58 | 0.03 | 92 | 1007.0 | |
| 20260831062923 | 13 | 0.0 | 0.0 | 0.00 | 0.58 | 0.03 | 92 | 1006.9 | |
| 20260831062419 | 13 | 0.0 | 0.0 | 0.00 | 0.58 | 0.03 | 92 | 1006.9 | |
| 20260831061918 | 13 | 0.0 | 0.0 | 0.00 | 0.58 | 0.03 | 91 | 1006.9 | |
| 20260831061419 | 13 | 0.0 | 0.0 | 0.00 | 0.58 | 0.03 | 91 | 1006.7 | |
| 20260831061252 | 13 | 0.0 | 0.0 | 0.00 | 0.58 | 0.03 | 91 | 1006.8 | |
| 20260831060415 | 13 | 0.0 | 0.0 | 0.00 | 0.58 | 0.03 | 91 | 1006.6 | |
| 20260831055913 | 13 | 0.0 | 0.0 | 0.00 | 0.58 | 0.03 | 91 | 1006.6 | |
| 20260831055412 | 13 | 0.0 | 0.0 | 0.00 | 0.58 | 0.03 | 91 | 1006.7 | |
| 20260831054909 | 13 | 0.0 | 0.0 | 0.00 | 0.58 | 0.03 | 91 | 1006.5 | |
| 20260831054407 | 13 | 0.0 | 0.0 | 0.00 | 0.58 | 0.03 | 91 | 1006.4 | |
| 20260831053907 | 13 | 0.0 | 0.0 | 0.00 | 0.58 | 0.03 | 91 | 1006.4 | |
| 20260831053720 | 13 | 0.0 | 0.0 | 0.00 | 0.58 | 0.03 | 91 | 1006.4 | |
| 20260831053309 | 13 | 0.0 | 0.0 | 0.00 | 0.58 | 0.03 | 91 | 1006.4 | |
| 20260831052710 | 13 | 0.0 | 0.0 | 0.00 | 0.58 | 0.03 | 91 | 1006.1 | |
| 20260831051904 | 13 | 0.0 | 0.0 | 0.00 | 0.58 | 0.03 | 91 | 1006.0 | |
| 20260831051402 | 13 | 0.0 | 0.0 | 0.00 | 0.58 | 0.03 | 91 | 1006.0 | |
| 20260831050859 | 13 | 0.0 | 0.0 | 0.00 | 0.58 | 0.03 | 91 | 1005.9 | |
| 20260831050412 | 13 | 0.0 | 0.0 | 0.00 | 0.58 | 0.03 | 91 | 1005.9 | |
| 20260831045859 | 13 | 0.0 | 0.0 | 0.00 | 0.58 | 0.03 | 92 | 1005.8 | |
| 20260831045357 | 13 | 0.0 | 0.0 | 0.00 | 0.58 | 0.03 | 92 | 1005.7 | |
| 20260831044857 | 13 | 0.0 | 0.0 | 0.00 | 0.58 | 0.03 | 91 | 1005.6 | |
| 20260831044404 | 12 | 0.0 | 0.0 | 0.00 | 0.58 | 0.03 | 91 | 1005.5 | |
| 20260831044255 | 12 | 0.0 | 0.0 | 0.00 | 0.58 | 0.03 | 91 | 1005.5 | |
| 20260831043358 | 12 | 0.0 | 0.0 | 0.00 | 0.58 | 0.03 | 91 | 1005.4 | |
| 20260831042857 | 12 | 0.0 | 0.0 | 0.00 | 0.58 | 0.03 | 91 | 1005.4 | |
| 20260831042659 | 12 | 0.0 | 0.0 | 0.00 | 0.58 | 0.03 | 91 | 1005.4 | |
| 20260831042233 | 12 | 0.0 | 0.0 | 0.00 | 0.58 | 0.03 | 91 | 1005.4 | |
| 20260831041352 | 12 | 0.0 | 0.0 | 0.00 | 0.58 | 0.03 | 91 | 1005.4 | |
| 20260831040857 | 12 | 0.0 | 0.0 | 0.00 | 0.58 | 0.03 | 90 | 1005.3 | |
| 20260831040352 | 12 | 0.0 | 0.0 | 0.00 | 0.58 | 0.03 | 90 | 1005.2 | |
| 20260831035851 | 12 | 0.0 | 0.0 | 0.00 | 0.58 | 0.03 | 90 | 1005.1 | |
| 20260831035351 | 12 | 0.0 | 0.0 | 0.00 | 0.58 | 0.03 | 90 | 1005.2 | |
| 20260831034845 | 13 | 0.0 | 0.0 | 0.00 | 0.58 | 0.03 | 90 | 1005.1 | |
| 20260831034345 | 13 | 0.0 | 0.0 | 0.00 | 0.58 | 0.03 | 91 | 1005.1 | |
| 20260831033850 | 13 | 0.0 | 0.0 | 0.00 | 0.58 | 0.03 | 91 | 1005.2 | |
| 20260831033345 | 13 | 0.0 | 0.0 | 0.00 | 0.58 | 0.03 | 91 | 1005.1 | |
| 20260831032839 | 13 | 0.0 | 0.0 | 0.00 | 0.58 | 0.03 | 91 | 1005.0 | |
| 20260831032556 | 13 | 268 | 11.3 | 24.1 | 0.00 | 0.58 | 0.03 | 92 | 1005.0 |
| 20260831032342 | 13 | 268 | 11.3 | 24.1 | 0.00 | 0.58 | 0.03 | 92 | 1005.0 |
| 20260831031839 | 13 | 268 | 11.3 | 24.1 | 0.00 | 0.58 | 0.03 | 92 | 1004.9 |
| 20260831031340 | 13 | 252 | 8.0 | 19.3 | 0.00 | 0.58 | 0.03 | 92 | 1004.9 |
| 20260831031106 | 13 | 257 | 9.7 | 22.5 | 0.00 | 0.58 | 0.03 | 92 | 1004.8 |
| 20260831030951 | 13 | 268 | 9.7 | 19.3 | 0.00 | 0.58 | 0.03 | 92 | 1004.8 |
| 20260831025836 | 13 | 245 | 11.3 | 22.5 | 0.00 | 0.58 | 0.03 | 92 | 1004.6 |
| 20260831025651 | 14 | 254 | 9.7 | 17.7 | 0.00 | 0.58 | 0.03 | 92 | 1004.5 |
| 20260831024833 | 14 | 237 | 8.0 | 17.7 | 0.00 | 0.58 | 0.03 | 92 | 1004.4 |
| 20260831024333 | 14 | 247 | 8.0 | 19.3 | 0.00 | 0.58 | 0.03 | 93 | 1004.4 |
| 20260831023834 | 14 | 241 | 11.3 | 19.3 | 0.00 | 0.58 | 0.03 | 93 | 1004.4 |
| 20260831023331 | 14 | 258 | 9.7 | 19.3 | 0.00 | 0.58 | 0.03 | 93 | 1004.5 |
| 20260831022830 | 14 | 238 | 8.0 | 17.7 | 0.00 | 0.58 | 0.03 | 93 | 1004.5 |
| 20260831022325 | 14 | 259 | 9.7 | 16.1 | 0.00 | 0.58 | 0.03 | 93 | 1004.4 |
| 20260831021829 | 14 | 261 | 8.0 | 20.9 | 0.00 | 0.58 | 0.03 | 93 | 1004.4 |
| 20260831021323 | 14 | 262 | 6.4 | 20.9 | 0.00 | 0.58 | 0.03 | 93 | 1004.3 |
| 20260831021153 | 14 | 228 | 9.7 | 19.3 | 0.00 | 0.58 | 0.03 | 93 | 1004.2 |
| 20260831020329 | 14 | 241 | 9.7 | 17.7 | 0.00 | 0.58 | 0.03 | 93 | 1004.3 |
| 20260831015830 | 15 | 238 | 6.4 | 17.7 | 0.00 | 0.58 | 0.03 | 93 | 1004.2 |
| 20260831015327 | 15 | 264 | 8.0 | 17.7 | 0.03 | 0.58 | 0.03 | 93 | 1004.2 |
| 20260831015148 | 15 | 255 | 8.0 | 16.1 | 0.03 | 0.58 | 0.03 | 93 | 1004.2 |
| 20260831014630 | 15 | 247 | 8.0 | 20.9 | 0.03 | 0.58 | 0.03 | 93 | 1004.3 |
| 20260831013827 | 15 | 224 | 6.4 | 20.9 | 0.03 | 0.58 | 0.03 | 93 | 1004.3 |
| 20260831013323 | 15 | 250 | 4.8 | 16.1 | 0.03 | 0.58 | 0.03 | 93 | 1004.3 |
| 20260831012828 | 15 | 257 | 6.4 | 16.1 | 0.03 | 0.58 | 0.03 | 93 | 1004.4 |
| 20260831012328 | 15 | 226 | 6.4 | 14.5 | 0.03 | 0.58 | 0.03 | 93 | 1004.4 |
| 20260831011822 | 15 | 200 | 4.8 | 11.3 | 0.03 | 0.58 | 0.03 | 93 | 1004.3 |
| 20260831011316 | 15 | 212 | 4.8 | 14.5 | 0.03 | 0.58 | 0.03 | 93 | 1004.2 |
| 20260831010822 | 15 | 210 | 6.4 | 16.1 | 0.03 | 0.58 | 0.03 | 93 | 1004.3 |
| 20260831010319 | 15 | 210 | 3.2 | 16.1 | 0.03 | 0.58 | 0.03 | 93 | 1004.3 |
| 20260831010220 | 15 | 212 | 3.2 | 16.1 | 0.03 | 0.56 | 0.03 | 93 | 1004.3 |
| 20260831005315 | 15 | 180 | 8.0 | 16.1 | 0.00 | 0.56 | 0.00 | 93 | 1004.4 |
| 20260831004819 | 15 | 200 | 6.4 | 14.5 | 0.00 | 0.56 | 0.00 | 93 | 1004.5 |
| 20260831004315 | 15 | 199 | 4.8 | 16.1 | 0.00 | 0.56 | 0.00 | 93 | 1004.5 |
| 20260831004148 | 15 | 210 | 6.4 | 16.1 | 0.00 | 0.56 | 0.00 | 93 | 1004.6 |
| 20260831003313 | 15 | 152 | 4.8 | 14.5 | 0.00 | 0.56 | 0.00 | 92 | 1004.6 |
| 20260831002810 | 15 | 207 | 4.8 | 16.1 | 0.00 | 0.56 | 0.00 | 92 | 1004.6 |
| 20260831002311 | 15 | 192 | 4.8 | 16.1 | 0.00 | 0.56 | 0.00 | 92 | 1004.7 |
| 20260831001803 | 15 | 207 | 6.4 | 14.5 | 0.00 | 0.56 | 0.00 | 92 | 1004.6 |
| 20260831001307 | 15 | 199 | 4.8 | 14.5 | 0.00 | 0.56 | 0.00 | 92 | 1004.7 |
| 20260831000800 | 15 | 227 | 4.8 | 11.3 | 0.00 | 0.56 | 0.00 | 92 | 1004.8 |
| 20260831000300 | 15 | 212 | 4.8 | 11.3 | 0.00 | 0.56 | 0.00 | 92 | 1005.0 |
| 20260830235759 | 15 | 217 | 3.2 | 9.7 | 0.00 | 0.56 | 0.00 | 92 | 1004.9 |
| 20260830235300 | 15 | 204 | 3.2 | 14.5 | 0.00 | 0.56 | 0.00 | 92 | 1004.9 |
| 20260830234759 | 15 | 220 | 6.4 | 14.5 | 0.00 | 0.56 | 0.00 | 92 | 1004.9 |
| 20260830234257 | 15 | 257 | 4.8 | 16.1 | 0.00 | 0.58 | 0.00 | 92 | 1005.1 |
| 20260830233755 | 15 | 206 | 6.4 | 16.1 | 0.00 | 0.58 | 0.00 | 92 | 1005.3 |
| 20260830233253 | 15 | 130 | 6.4 | 14.5 | 0.00 | 0.58 | 0.00 | 92 | 1005.3 |
| 20260830232756 | 15 | 214 | 6.4 | 17.7 | 0.00 | 0.58 | 0.00 | 92 | 1005.3 |
| 20260830232552 | 15 | 237 | 6.4 | 17.7 | 0.00 | 0.58 | 0.00 | 92 | 1005.3 |
| 20260830231750 | 15 | 217 | 6.4 | 16.1 | 0.00 | 0.58 | 0.00 | 92 | 1005.4 |
| 20260830231253 | 15 | 196 | 8.0 | 16.1 | 0.00 | 0.58 | 0.00 | 92 | 1005.3 |
| 20260830230751 | 15 | 233 | 3.2 | 16.1 | 0.00 | 0.58 | 0.00 | 92 | 1005.4 |
| 20260830230247 | 15 | 227 | 6.4 | 16.1 | 0.00 | 0.58 | 0.00 | 92 | 1005.5 |
| 20260830230105 | 15 | 247 | 8.0 | 20.9 | 0.00 | 0.58 | 0.58 | 92 | 1005.4 |
| 20260830225900 | 15 | 223 | 9.7 | 20.9 | 0.00 | 0.58 | 0.58 | 92 | 1005.5 |
| 20260830225844 | 15 | 247 | 8.0 | 20.9 | 0.00 | 0.58 | 0.58 | 92 | 1005.4 |
| 20260830224743 | 15 | 234 | 8.0 | 16.1 | 0.00 | 0.58 | 0.58 | 92 | 1005.5 |
| 20260830224242 | 15 | 230 | 8.0 | 20.9 | 0.05 | 0.58 | 0.58 | 92 | 1005.6 |
| 20260830223740 | 15 | 266 | 8.0 | 22.5 | 0.08 | 0.58 | 0.58 | 91 | 1005.6 |
| 20260830223439 | 15 | 210 | 8.0 | 22.5 | 0.13 | 0.58 | 0.58 | 91 | 1005.6 |
| 20260830223008 | 15 | 197 | 8.0 | 17.7 | 0.15 | 0.58 | 0.58 | 91 | 1005.7 |
| 20260830222748 | 15 | 197 | 8.0 | 17.7 | 0.15 | 0.58 | 0.58 | 91 | 1005.7 |
| 20260830222237 | 15 | 220 | 8.0 | 20.9 | 0.15 | 0.58 | 0.58 | 91 | 1005.7 |
| 20260830221742 | 15 | 244 | 8.0 | 20.9 | 0.15 | 0.58 | 0.58 | 91 | 1005.8 |
| 20260830221237 | 15 | 247 | 14.5 | 22.5 | 0.30 | 0.58 | 0.58 | 91 | 1005.7 |
| 20260830220740 | 15 | 220 | 11.3 | 22.5 | 0.41 | 0.58 | 0.58 | 91 | 1005.8 |
| 20260830220240 | 15 | 251 | 12.9 | 24.1 | 0.51 | 0.58 | 0.58 | 91 | 1005.7 |
| 20260830215738 | 15 | 254 | 12.9 | 25.7 | 0.51 | 0.08 | 0.58 | 90 | 1005.7 |
| 20260830215237 | 15 | 219 | 11.3 | 30.6 | 0.51 | 0.08 | 0.58 | 90 | 1005.9 |
| 20260830214739 | 15 | 258 | 16.1 | 35.4 | 0.48 | 0.08 | 0.56 | 89 | 1005.7 |
| 20260830214242 | 15 | 233 | 22.5 | 35.4 | 0.48 | 0.08 | 0.53 | 89 | 1005.8 |
| 20260830213740 | 16 | 268 | 14.5 | 27.4 | 0.48 | 0.08 | 0.51 | 88 | 1005.4 |
| 20260830213241 | 16 | 243 | 12.9 | 27.4 | 0.43 | 0.08 | 0.46 | 88 | 1005.3 |
| 20260830212739 | 16 | 221 | 9.7 | 32.2 | 0.43 | 0.08 | 0.43 | 88 | 1005.3 |
| 20260830212248 | 16 | 213 | 12.9 | 32.2 | 0.43 | 0.08 | 0.43 | 87 | 1005.3 |
| 20260830211738 | 17 | 195 | 6.4 | 14.5 | 0.41 | 0.08 | 0.43 | 87 | 1005.5 |
| 20260830211244 | 17 | 265 | 3.2 | 8.0 | 0.25 | 0.08 | 0.25 | 86 | 1005.4 |
| 20260830210746 | 17 | 169 | 1.6 | 8.0 | 0.15 | 0.08 | 0.18 | 85 | 1005.4 |
| 20260830210234 | 17 | 188 | 4.8 | 6.4 | 0.05 | 0.08 | 0.08 | 85 | 1005.4 |
| 20260830205735 | 17 | 207 | 1.6 | 9.7 | 0.05 | 0.03 | 0.08 | 84 | 1005.4 |
| 20260830205235 | 17 | 186 | 3.2 | 9.7 | 0.05 | 0.03 | 0.08 | 84 | 1005.4 |
| 20260830204733 | 17 | 247 | 3.2 | 17.7 | 0.05 | 0.03 | 0.08 | 83 | 1005.6 |
| 20260830204230 | 17 | 203 | 6.4 | 17.7 | 0.03 | 0.03 | 0.05 | 82 | 1005.9 |
| 20260830204219 | 17 | 200 | 9.7 | 17.7 | 0.00 | 0.03 | 0.03 | 80 | 1005.9 |
| 20260830203453 | 17 | 186 | 6.4 | 17.7 | 0.00 | 0.03 | 0.03 | 80 | 1005.8 |
| 20260830203240 | 17 | 186 | 6.4 | 17.7 | 0.00 | 0.03 | 0.03 | 80 | 1005.8 |
| 20260830202732 | 17 | 197 | 6.4 | 17.7 | 0.00 | 0.03 | 0.03 | 80 | 1006.0 |
| 20260830202232 | 17 | 237 | 8.0 | 16.1 | 0.00 | 0.03 | 0.03 | 79 | 1006.1 |
| 20260830201948 | 17 | 214 | 3.2 | 17.7 | 0.00 | 0.03 | 0.03 | 78 | 1006.1 |
| 20260830201900 | 17 | 171 | 4.8 | 17.7 | 0.00 | 0.03 | 0.03 | 79 | 1006.1 |
| 20260830200731 | 17 | 217 | 6.4 | 11.3 | 0.00 | 0.03 | 0.03 | 78 | 1006.1 |
| 20260830200231 | 17 | 159 | 4.8 | 16.1 | 0.00 | 0.03 | 0.03 | 77 | 1006.1 |
| 20260830195736 | 17 | 186 | 4.8 | 20.9 | 0.00 | 0.03 | 0.03 | 77 | 1006.2 |
| 20260830195233 | 17 | 220 | 6.4 | 20.9 | 0.00 | 0.03 | 0.03 | 77 | 1006.2 |
| 20260830194727 | 17 | 240 | 6.4 | 14.5 | 0.00 | 0.03 | 0.03 | 77 | 1006.2 |
| 20260830194226 | 18 | 165 | 4.8 | 14.5 | 0.00 | 0.03 | 0.03 | 76 | 1006.1 |
| 20260830193725 | 18 | 196 | 3.2 | 16.1 | 0.00 | 0.03 | 0.03 | 76 | 1006.2 |
| 20260830193226 | 18 | 219 | 6.4 | 17.7 | 0.00 | 0.03 | 0.03 | 76 | 1006.2 |
| 20260830193204 | 18 | 234 | 8.0 | 17.7 | 0.00 | 0.03 | 0.03 | 76 | 1006.4 |
| 20260830192223 | 18 | 189 | 3.2 | 14.5 | 0.00 | 0.03 | 0.03 | 75 | 1006.5 |
| 20260830191729 | 18 | 224 | 6.4 | 19.3 | 0.00 | 0.03 | 0.03 | 75 | 1006.4 |
| 20260830191229 | 18 | 235 | 8.0 | 19.3 | 0.00 | 0.03 | 0.03 | 74 | 1006.5 |
| 20260830190802 | 18 | 235 | 12.9 | 19.3 | 0.00 | 0.03 | 0.03 | 74 | 1006.6 |
| 20260830190722 | 18 | 213 | 6.4 | 19.3 | 0.00 | 0.03 | 0.03 | 74 | 1006.6 |
| 20260830190540 | 18 | 235 | 12.9 | 19.3 | 0.00 | 0.03 | 0.03 | 74 | 1006.6 |
| 20260830185724 | 18 | 231 | 6.4 | 19.3 | 0.00 | 0.03 | 0.03 | 74 | 1006.6 |
| 20260830185219 | 18 | 261 | 9.7 | 25.7 | 0.00 | 0.03 | 0.03 | 74 | 1006.6 |
| 20260830184720 | 18 | 220 | 8.0 | 25.7 | 0.00 | 0.03 | 0.03 | 73 | 1006.7 |
| 20260830184219 | 18 | 223 | 9.7 | 32.2 | 0.00 | 0.03 | 0.03 | 74 | 1006.7 |
| 20260830183719 | 18 | 223 | 8.0 | 32.2 | 0.00 | 0.03 | 0.03 | 73 | 1006.6 |
| 20260830183222 | 18 | 235 | 9.7 | 24.1 | 0.00 | 0.03 | 0.03 | 73 | 1006.6 |
| 20260830182720 | 18 | 227 | 4.8 | 19.3 | 0.00 | 0.03 | 0.03 | 73 | 1006.6 |
| 20260830182220 | 18 | 213 | 6.4 | 19.3 | 0.00 | 0.03 | 0.03 | 72 | 1006.6 |
| 20260830181720 | 19 | 231 | 9.7 | 16.1 | 0.00 | 0.03 | 0.03 | 72 | 1006.5 |
| 20260830181218 | 19 | 185 | 8.0 | 20.9 | 0.00 | 0.03 | 0.03 | 71 | 1006.5 |
| 20260830181115 | 19 | 237 | 6.4 | 20.9 | 0.00 | 0.03 | 0.03 | 71 | 1006.6 |
| 20260830180525 | 19 | 230 | 11.3 | 30.6 | 0.00 | 0.03 | 0.03 | 71 | 1006.6 |
| 20260830175717 | 19 | 251 | 9.7 | 37.0 | 0.00 | 0.03 | 0.03 | 71 | 1006.7 |
| 20260830175217 | 19 | 245 | 12.9 | 37.0 | 0.00 | 0.03 | 0.03 | 70 | 1006.6 |
| 20260830174719 | 19 | 200 | 12.9 | 29.0 | 0.00 | 0.03 | 0.03 | 70 | 1006.7 |
| 20260830174215 | 20 | 202 | 11.3 | 19.3 | 0.00 | 0.03 | 0.03 | 70 | 1006.7 |
| 20260830173715 | 20 | 230 | 8.0 | 19.3 | 0.00 | 0.03 | 0.03 | 70 | 1006.8 |
| 20260830173211 | 20 | 259 | 9.7 | 16.1 | 0.00 | 0.03 | 0.03 | 70 | 1006.9 |
| 20260830172715 | 20 | 223 | 9.7 | 24.1 | 0.00 | 0.03 | 0.03 | 70 | 1006.8 |
| 20260830172212 | 20 | 217 | 8.0 | 24.1 | 0.00 | 0.03 | 0.03 | 70 | 1006.8 |
| 20260830171711 | 20 | 228 | 12.9 | 24.1 | 0.00 | 0.05 | 0.03 | 70 | 1006.9 |
| 20260830171216 | 20 | 209 | 8.0 | 16.1 | 0.00 | 0.05 | 0.03 | 71 | 1006.9 |
| 20260830170709 | 20 | 243 | 9.7 | 25.7 | 0.00 | 0.05 | 0.03 | 70 | 1006.9 |
| 20260830170209 | 20 | 212 | 6.4 | 27.4 | 0.00 | 0.05 | 0.03 | 70 | 1006.9 |
| 20260830170124 | 20 | 234 | 17.7 | 27.4 | 0.00 | 0.05 | 0.03 | 68 | 1007.0 |
| 20260830165212 | 20 | 227 | 16.1 | 30.6 | 0.00 | 0.05 | 0.03 | 68 | 1007.0 |
| 20260830164707 | 20 | 206 | 17.7 | 30.6 | 0.00 | 0.05 | 0.03 | 68 | 1006.8 |
| 20260830164205 | 20 | 258 | 14.5 | 27.4 | 0.00 | 0.05 | 0.03 | 67 | 1006.9 |
| 20260830163706 | 21 | 248 | 14.5 | 27.4 | 0.00 | 0.05 | 0.03 | 67 | 1007.0 |
| 20260830163206 | 21 | 217 | 9.7 | 22.5 | 0.00 | 0.05 | 0.03 | 67 | 1007.0 |
| 20260830162703 | 21 | 235 | 11.3 | 22.5 | 0.00 | 0.05 | 0.03 | 67 | 1007.0 |
| 20260830162203 | 21 | 224 | 9.7 | 30.6 | 0.00 | 0.05 | 0.03 | 67 | 1007.1 |
| 20260830161700 | 21 | 217 | 14.5 | 30.6 | 0.00 | 0.05 | 0.03 | 66 | 1007.1 |
| 20260830161159 | 21 | 161 | 11.3 | 27.4 | 0.00 | 0.05 | 0.03 | 65 | 1007.2 |
| 20260830160654 | 21 | 235 | 19.3 | 27.4 | 0.00 | 0.05 | 0.03 | 63 | 1007.2 |
| 20260830160153 | 21 | 254 | 16.1 | 27.4 | 0.00 | 0.05 | 0.03 | 63 | 1007.2 |
| 20260830155653 | 22 | 0 | 20.9 | 32.2 | 0.00 | 0.05 | 0.03 | 60 | 1007.4 |
| 20260830155153 | 22 | 244 | 20.9 | 32.2 | 0.00 | 0.05 | 0.03 | 60 | 1007.4 |
| 20260830154654 | 22 | 250 | 16.1 | 30.6 | 0.00 | 0.05 | 0.03 | 61 | 1007.4 |
| 20260830154433 | 22 | 247 | 22.5 | 29.0 | 0.00 | 0.05 | 0.03 | 61 | 1007.3 |
| 20260830153651 | 22 | 221 | 14.5 | 27.4 | 0.00 | 0.05 | 0.03 | 61 | 1007.2 |
| 20260830153148 | 22 | 245 | 14.5 | 27.4 | 0.00 | 0.05 | 0.03 | 61 | 1007.1 |
| 20260830152649 | 22 | 240 | 9.7 | 27.4 | 0.00 | 0.05 | 0.03 | 61 | 1007.2 |
| 20260830152150 | 22 | 264 | 9.7 | 22.5 | 0.00 | 0.05 | 0.03 | 60 | 1007.1 |
| 20260830151638 | 22 | 206 | 12.9 | 25.7 | 0.00 | 0.05 | 0.03 | 60 | 1007.2 |
| 20260830151140 | 22 | 247 | 14.5 | 27.4 | 0.00 | 0.05 | 0.03 | 59 | 1007.2 |
| 20260830150636 | 22 | 254 | 11.3 | 27.4 | 0.00 | 0.05 | 0.03 | 59 | 1007.2 |
| 20260830150137 | 23 | 228 | 8.0 | 27.4 | 0.00 | 0.05 | 0.03 | 58 | 1007.2 |
| 20260830145636 | 23 | 214 | 11.3 | 22.5 | 0.00 | 0.05 | 0.03 | 63 | 1007.3 |
| 20260830145134 | 23 | 204 | 8.0 | 22.5 | 0.00 | 0.05 | 0.03 | 63 | 1007.3 |
| 20260830144634 | 22 | 245 | 16.1 | 22.5 | 0.00 | 0.05 | 0.03 | 63 | 1007.4 |
| 20260830144131 | 22 | 224 | 12.9 | 22.5 | 0.00 | 0.10 | 0.03 | 64 | 1007.4 |
| 20260830143631 | 22 | 202 | 6.4 | 20.9 | 0.00 | 0.10 | 0.03 | 65 | 1007.4 |
| 20260830143130 | 22 | 192 | 12.9 | 16.1 | 0.00 | 0.13 | 0.03 | 65 | 1007.4 |
| 20260830142920 | 22 | 224 | 9.7 | 20.9 | 0.00 | 0.15 | 0.03 | 65 | 1007.5 |
| 20260830142425 | 22 | 244 | 9.7 | 20.9 | 0.00 | 0.46 | 0.03 | 65 | 1007.6 |
| 20260830141920 | 22 | 241 | 8.0 | 17.7 | 0.00 | 0.61 | 0.03 | 66 | 1007.6 |
| 20260830141143 | 22 | 224 | 9.7 | 24.1 | 0.00 | 0.64 | 0.03 | 66 | 1007.7 |
| 20260830140632 | 22 | 219 | 14.5 | 24.1 | 0.00 | 0.64 | 0.03 | 67 | 1007.9 |
| 20260830140128 | 22 | 213 | 9.7 | 162.5 | 0.00 | 0.64 | 0.03 | 70 | 1007.8 |
| 20260830135627 | 22 | 269 | 12.9 | 162.5 | 0.00 | 0.64 | 0.03 | 70 | 1007.9 |
| 20260830135127 | 21 | 268 | 6.4 | 24.1 | 0.00 | 0.64 | 0.03 | 72 | 1008.0 |
| 20260830134640 | 20 | 303 | 11.3 | 24.1 | 0.00 | 0.64 | 0.03 | 71 | 1008.1 |
| 20260830134125 | 20 | 289 | 11.3 | 24.1 | 0.00 | 0.64 | 0.03 | 71 | 1008.3 |
| 20260830133627 | 21 | 286 | 9.7 | 19.3 | 0.00 | 0.64 | 0.03 | 69 | 1008.2 |
| 20260830133125 | 21 | 233 | 6.4 | 19.3 | 0.00 | 0.64 | 0.03 | 68 | 1008.1 |
| 20260830132626 | 21 | 210 | 8.0 | 19.3 | 0.00 | 0.69 | 0.03 | 67 | 1008.2 |
| 20260830132433 | 21 | 219 | 11.3 | 19.3 | 0.00 | 0.71 | 0.03 | 67 | 1008.2 |
| 20260830131636 | 21 | 272 | 9.7 | 22.5 | 0.00 | 0.71 | 0.03 | 66 | 1008.2 |
| 20260830131116 | 21 | 227 | 11.3 | 22.5 | 0.00 | 0.71 | 0.03 | 67 | 1008.3 |
| 20260830130628 | 21 | 230 | 9.7 | 24.1 | 0.00 | 0.71 | 0.03 | 66 | 1008.3 |
| 20260830130419 | 21 | 207 | 9.7 | 24.1 | 0.00 | 0.71 | 0.03 | 65 | 1008.3 |
| 20260830125921 | 22 | 228 | 11.3 | 17.7 | 0.00 | 0.71 | 0.03 | 65 | 1008.4 |
| 20260830125112 | 22 | 207 | 8.0 | 17.7 | 0.00 | 0.71 | 0.03 | 66 | 1008.3 |
| 20260830124610 | 22 | 223 | 6.4 | 17.7 | 0.00 | 0.71 | 0.03 | 67 | 1008.3 |
| 20260830124112 | 22 | 237 | 4.8 | 14.5 | 0.00 | 0.74 | 0.03 | 67 | 1008.5 |
| 20260830123622 | 22 | 128 | 6.4 | 17.7 | 0.00 | 0.74 | 0.03 | 65 | 1008.6 |
| 20260830123355 | 22 | 213 | 8.0 | 17.7 | 0.00 | 0.74 | 0.03 | 65 | 1008.6 |
| 20260830122617 | 22 | 213 | 8.0 | 17.7 | 0.00 | 0.74 | 0.03 | 65 | 1008.6 |
| 20260830122118 | 22 | 204 | 11.3 | 17.7 | 0.00 | 0.74 | 0.03 | 64 | 1008.8 |
| 20260830121908 | 22 | 269 | 6.4 | 14.5 | 0.00 | 0.74 | 0.03 | 64 | 1008.7 |
| 20260830121112 | 22 | 220 | 8.0 | 17.7 | 0.00 | 0.74 | 0.03 | 64 | 1008.7 |
| 20260830120602 | 22 | 240 | 4.8 | 17.7 | 0.00 | 0.74 | 0.03 | 64 | 1008.7 |
| 20260830120120 | 22 | 258 | 9.7 | 19.3 | 0.00 | 0.74 | 0.03 | 63 | 1008.6 |
| 20260830115607 | 22 | 237 | 12.9 | 20.9 | 0.00 | 0.74 | 0.03 | 65 | 1008.7 |
| 20260830115055 | 22 | 234 | 14.5 | 20.9 | 0.00 | 0.74 | 0.03 | 66 | 1008.6 |
| 20260830114606 | 22 | 234 | 8.0 | 20.9 | 0.00 | 0.74 | 0.03 | 64 | 1008.8 |
| 20260830114107 | 22 | 237 | 9.7 | 17.7 | 0.00 | 0.74 | 0.03 | 67 | 1008.8 |
| 20260830113555 | 21 | 169 | 9.7 | 19.3 | 0.00 | 0.74 | 0.03 | 68 | 1008.9 |
| 20260830113118 | 21 | 206 | 9.7 | 19.3 | 0.00 | 0.74 | 0.03 | 71 | 1008.9 |
| 20260830112606 | 21 | 250 | 11.3 | 17.7 | 0.00 | 0.74 | 0.03 | 68 | 1009.0 |
| 20260830112051 | 21 | 231 | 6.4 | 19.3 | 0.00 | 0.74 | 0.03 | 69 | 1009.0 |
| 20260830111552 | 21 | 251 | 9.7 | 20.9 | 0.00 | 0.74 | 0.03 | 69 | 1009.1 |
| 20260830111109 | 21 | 196 | 11.3 | 24.1 | 0.00 | 0.74 | 0.03 | 69 | 1009.2 |
| 20260830110600 | 21 | 214 | 14.5 | 24.1 | 0.00 | 0.74 | 0.03 | 68 | 1009.2 |
| 20260830110125 | 21 | 189 | 9.7 | 24.1 | 0.00 | 0.74 | 0.03 | 70 | 1009.2 |
| 20260830105558 | 21 | 219 | 12.9 | 24.1 | 0.00 | 0.74 | 0.03 | 70 | 1009.3 |
| 20260830105046 | 21 | 120 | 8.0 | 19.3 | 0.00 | 0.74 | 0.03 | 73 | 1009.2 |